Photometre #855[NE_1.6_Dp] OHP_OBSERVATOIRE AOT

File : 20221128_855.hum

28/11/2022,07:48:21,TEMP=12.3,BA=5.64,STAT.h
28/11/2022,07:48:22,TEMP=12.3,BA=5.64,STAT.h
28/11/2022,07:51:01,TEMP=12.3,BA=5.64,STAT.h
28/11/2022,07:53:00,TEMP=12.3,BA=5.64,STAT.h
28/11/2022,07:53:06,TEMP=12.3,BA=5.64,STAT.h
28/11/2022,07:58:32,TEMP=12.3,BA=5.64,STAT.h
28/11/2022,07:58:33,TEMP=12.3,BA=5.64,STAT.h
28/11/2022,08:00:01,TEMP=12.3,BA=5.64,STAT.h
28/11/2022,08:03:01,TEMP=12.3,BA=5.64,STAT.h
28/11/2022,08:05:12,TEMP=12.3,BA=5.64,STAT.h
28/11/2022,08:05:13,TEMP=12.3,BA=5.64,STAT.h
28/11/2022,08:06:01,TEMP=12.3,BA=5.64,STAT.h
28/11/2022,08:09:01,TEMP=12.3,BA=5.64,STAT.h
28/11/2022,08:12:01,TEMP=12.3,BA=5.64,STAT.h
28/11/2022,08:13:26,TEMP=12.3,BA=5.64,STAT.h
28/11/2022,08:13:27,TEMP=12.3,BA=5.64,STAT.h
28/11/2022,08:15:23,TEMP=6.1,BA=5.64,STAT.D,ExtBa=12.60
28/11/2022,08:15:35,TEMP=6.1,BA=5.64,STAT.h
28/11/2022,08:23:52,TEMP=6.1,BA=5.64,STAT.h
28/11/2022,08:23:53,TEMP=6.1,BA=5.64,STAT.h
28/11/2022,08:24:01,TEMP=6.1,BA=5.64,STAT.h
28/11/2022,08:25:03,TEMP=6.1,BA=5.64,STAT.h
28/11/2022,08:27:01,TEMP=6.1,BA=5.64,STAT.h
28/11/2022,08:30:01,TEMP=6.1,BA=5.64,STAT.h
28/11/2022,08:33:01,TEMP=6.1,BA=5.64,STAT.h
28/11/2022,08:36:01,TEMP=6.1,BA=5.64,STAT.h
28/11/2022,08:39:01,TEMP=6.1,BA=5.64,STAT.h
28/11/2022,08:40:03,TEMP=6.1,BA=5.64,STAT.h
28/11/2022,08:40:04,TEMP=6.1,BA=5.64,STAT.h
28/11/2022,08:42:24,TEMP=5.7,BA=5.64,STAT.D,ExtBa=13.90
28/11/2022,08:42:30,TEMP=5.7,BA=5.64,STAT.h
28/11/2022,08:54:23,TEMP=5.7,BA=5.64,STAT.D,ExtBa=12.30
28/11/2022,08:54:25,TEMP=5.7,BA=5.64,STAT.h
28/11/2022,08:55:03,TEMP=5.7,BA=5.64,STAT.h
28/11/2022,08:55:04,TEMP=5.7,BA=5.64,STAT.h
28/11/2022,08:57:01,TEMP=5.7,BA=5.64,STAT.h
28/11/2022,09:00:01,TEMP=5.7,BA=5.64,STAT.h
28/11/2022,09:03:01,TEMP=5.7,BA=5.64,STAT.h
28/11/2022,09:06:01,TEMP=5.7,BA=5.64,STAT.h
28/11/2022,09:09:01,TEMP=5.7,BA=5.64,STAT.h
28/11/2022,09:10:03,TEMP=5.7,BA=5.64,STAT.h
28/11/2022,09:10:04,TEMP=5.7,BA=5.64,STAT.h
28/11/2022,09:12:01,TEMP=5.7,BA=5.64,STAT.h
28/11/2022,09:15:01,TEMP=5.7,BA=5.64,STAT.h
28/11/2022,09:18:01,TEMP=5.7,BA=5.64,STAT.h
28/11/2022,09:21:23,TEMP=6.1,BA=5.64,STAT.D,ExtBa=12.40
28/11/2022,09:21:35,TEMP=6.1,BA=5.64,STAT.h
28/11/2022,09:25:03,TEMP=6.1,BA=5.64,STAT.h
28/11/2022,09:27:24,TEMP=6.2,BA=5.64,STAT.D,ExtBa=12.30
28/11/2022,09:39:23,TEMP=6.5,BA=5.64,STAT.D,ExtBa=12.60
28/11/2022,09:41:18,TEMP=7.0,BA=5.64,STAT.D,ExtBa=12.40
28/11/2022,09:55:25,TEMP=6.9,BA=5.64,STAT.D,ExtBa=12.30
28/11/2022,10:06:01,TEMP=7.3,BA=5.64,STAT.h
28/11/2022,10:09:01,TEMP=7.3,BA=5.64,STAT.h
28/11/2022,10:10:25,TEMP=7.0,BA=5.64,STAT.D,ExtBa=12.60
28/11/2022,10:21:01,TEMP=7.4,BA=5.64,STAT.h
28/11/2022,10:24:01,TEMP=7.4,BA=5.64,STAT.h
28/11/2022,10:25:03,TEMP=7.4,BA=5.64,STAT.h
28/11/2022,10:27:01,TEMP=7.4,BA=5.64,STAT.h
28/11/2022,10:30:01,TEMP=7.4,BA=5.64,STAT.h
28/11/2022,10:33:01,TEMP=7.4,BA=5.64,STAT.h
28/11/2022,10:36:01,TEMP=7.4,BA=5.64,STAT.h
28/11/2022,10:39:01,TEMP=7.4,BA=5.64,STAT.h
28/11/2022,10:40:03,TEMP=7.4,BA=5.64,STAT.h
28/11/2022,10:40:04,TEMP=7.4,BA=5.64,STAT.h
28/11/2022,10:42:01,TEMP=7.4,BA=5.64,STAT.h
28/11/2022,10:45:01,TEMP=7.4,BA=5.64,STAT.h
28/11/2022,10:48:01,TEMP=7.4,BA=5.64,STAT.h
28/11/2022,10:51:01,TEMP=7.4,BA=5.64,STAT.h
28/11/2022,10:54:01,TEMP=7.4,BA=5.64,STAT.h
28/11/2022,10:55:03,TEMP=7.4,BA=5.64,STAT.h
28/11/2022,10:55:04,TEMP=7.4,BA=5.64,STAT.h
28/11/2022,10:57:01,TEMP=7.4,BA=5.64,STAT.h
28/11/2022,11:00:01,TEMP=7.4,BA=5.64,STAT.h
28/11/2022,11:03:01,TEMP=7.4,BA=5.64,STAT.h
28/11/2022,11:06:01,TEMP=7.4,BA=5.64,STAT.h
28/11/2022,11:09:01,TEMP=7.4,BA=5.64,STAT.h
28/11/2022,11:10:03,TEMP=7.4,BA=5.64,STAT.h
28/11/2022,11:10:04,TEMP=7.4,BA=5.64,STAT.h
28/11/2022,11:12:01,TEMP=7.4,BA=5.64,STAT.h
28/11/2022,11:15:01,TEMP=7.4,BA=5.64,STAT.h
28/11/2022,11:18:01,TEMP=7.4,BA=5.64,STAT.h
28/11/2022,11:21:01,TEMP=7.4,BA=5.64,STAT.h
28/11/2022,11:24:01,TEMP=7.4,BA=5.64,STAT.h
28/11/2022,11:25:03,TEMP=7.4,BA=5.64,STAT.h
28/11/2022,11:27:01,TEMP=7.4,BA=5.64,STAT.h
28/11/2022,11:30:01,TEMP=7.4,BA=5.64,STAT.h
28/11/2022,11:33:01,TEMP=7.4,BA=5.64,STAT.h
28/11/2022,11:36:01,TEMP=7.4,BA=5.64,STAT.h
28/11/2022,11:39:01,TEMP=7.4,BA=5.64,STAT.h
28/11/2022,11:40:03,TEMP=7.4,BA=5.64,STAT.h
28/11/2022,11:40:04,TEMP=7.4,BA=5.64,STAT.h
28/11/2022,11:42:01,TEMP=7.4,BA=5.64,STAT.h
28/11/2022,11:45:01,TEMP=7.4,BA=5.64,STAT.h
28/11/2022,11:48:01,TEMP=7.4,BA=5.64,STAT.h
28/11/2022,11:51:01,TEMP=7.4,BA=5.64,STAT.h
28/11/2022,11:54:01,TEMP=7.4,BA=5.64,STAT.h
28/11/2022,11:55:03,TEMP=7.4,BA=5.64,STAT.h
28/11/2022,11:55:04,TEMP=7.4,BA=5.64,STAT.h
28/11/2022,11:57:01,TEMP=7.4,BA=5.64,STAT.h
28/11/2022,12:00:01,TEMP=7.4,BA=5.64,STAT.h
28/11/2022,12:03:01,TEMP=7.4,BA=5.64,STAT.h
28/11/2022,12:06:01,TEMP=7.4,BA=5.64,STAT.h
28/11/2022,12:09:01,TEMP=7.4,BA=5.64,STAT.h
28/11/2022,12:10:03,TEMP=7.4,BA=5.64,STAT.h
28/11/2022,12:10:04,TEMP=7.4,BA=5.64,STAT.h
28/11/2022,12:12:01,TEMP=7.4,BA=5.64,STAT.h
28/11/2022,12:15:01,TEMP=7.4,BA=5.64,STAT.h
28/11/2022,12:18:01,TEMP=7.4,BA=5.64,STAT.h
28/11/2022,12:21:01,TEMP=7.4,BA=5.64,STAT.h
28/11/2022,12:24:01,TEMP=7.4,BA=5.64,STAT.h
28/11/2022,12:25:03,TEMP=7.4,BA=5.64,STAT.h
28/11/2022,12:27:01,TEMP=7.4,BA=5.64,STAT.h
28/11/2022,12:30:01,TEMP=7.4,BA=5.64,STAT.h
28/11/2022,12:33:01,TEMP=7.4,BA=5.64,STAT.h
28/11/2022,12:36:01,TEMP=7.4,BA=5.64,STAT.h
28/11/2022,12:39:01,TEMP=7.4,BA=5.64,STAT.h
28/11/2022,12:40:03,TEMP=7.4,BA=5.64,STAT.h
28/11/2022,12:40:04,TEMP=7.4,BA=5.64,STAT.h
28/11/2022,12:42:01,TEMP=7.4,BA=5.64,STAT.h
28/11/2022,12:45:01,TEMP=7.4,BA=5.64,STAT.h
28/11/2022,12:48:01,TEMP=7.4,BA=5.64,STAT.h
28/11/2022,12:51:01,TEMP=7.4,BA=5.64,STAT.h
28/11/2022,12:54:01,TEMP=7.4,BA=5.64,STAT.h
28/11/2022,12:55:03,TEMP=7.4,BA=5.64,STAT.h
28/11/2022,12:55:04,TEMP=7.4,BA=5.64,STAT.h
28/11/2022,12:57:01,TEMP=7.4,BA=5.64,STAT.h
28/11/2022,13:00:01,TEMP=7.4,BA=5.64,STAT.h
28/11/2022,13:03:01,TEMP=7.4,BA=5.64,STAT.h
28/11/2022,13:06:01,TEMP=7.4,BA=5.64,STAT.h
28/11/2022,13:09:01,TEMP=7.4,BA=5.64,STAT.h
28/11/2022,13:10:03,TEMP=7.4,BA=5.64,STAT.h
28/11/2022,13:10:04,TEMP=7.4,BA=5.64,STAT.h
28/11/2022,13:12:01,TEMP=7.4,BA=5.64,STAT.h
28/11/2022,13:15:01,TEMP=7.4,BA=5.64,STAT.h
28/11/2022,13:18:01,TEMP=7.4,BA=5.64,STAT.h
28/11/2022,13:21:01,TEMP=7.4,BA=5.64,STAT.h
28/11/2022,13:24:01,TEMP=7.4,BA=5.64,STAT.h
28/11/2022,13:25:03,TEMP=7.4,BA=5.64,STAT.h
28/11/2022,13:27:01,TEMP=7.4,BA=5.64,STAT.h
28/11/2022,13:30:01,TEMP=7.4,BA=5.64,STAT.h
28/11/2022,13:33:01,TEMP=7.4,BA=5.64,STAT.h
28/11/2022,13:36:01,TEMP=7.4,BA=5.64,STAT.h
28/11/2022,13:39:01,TEMP=7.4,BA=5.64,STAT.h
28/11/2022,13:40:03,TEMP=7.4,BA=5.64,STAT.h
28/11/2022,13:40:04,TEMP=7.4,BA=5.64,STAT.h
28/11/2022,13:42:01,TEMP=7.4,BA=5.64,STAT.h
28/11/2022,13:45:01,TEMP=7.4,BA=5.64,STAT.h
28/11/2022,13:48:01,TEMP=7.4,BA=5.64,STAT.h
28/11/2022,13:51:01,TEMP=7.4,BA=5.64,STAT.h
28/11/2022,13:54:01,TEMP=7.4,BA=5.64,STAT.h
28/11/2022,13:55:03,TEMP=7.4,BA=5.64,STAT.h
28/11/2022,13:55:04,TEMP=7.4,BA=5.64,STAT.h
28/11/2022,13:57:01,TEMP=7.4,BA=5.64,STAT.h
28/11/2022,14:00:01,TEMP=7.4,BA=5.64,STAT.h
28/11/2022,14:03:01,TEMP=7.4,BA=5.64,STAT.h
28/11/2022,14:06:01,TEMP=7.4,BA=5.64,STAT.h
28/11/2022,14:09:01,TEMP=7.4,BA=5.64,STAT.h
28/11/2022,14:10:03,TEMP=7.4,BA=5.64,STAT.h
28/11/2022,14:10:04,TEMP=7.4,BA=5.64,STAT.h
28/11/2022,14:12:01,TEMP=7.4,BA=5.64,STAT.h
28/11/2022,14:15:01,TEMP=7.4,BA=5.64,STAT.h
28/11/2022,14:18:01,TEMP=7.4,BA=5.64,STAT.h
28/11/2022,14:21:01,TEMP=7.4,BA=5.64,STAT.h
28/11/2022,14:24:01,TEMP=7.4,BA=5.64,STAT.h
28/11/2022,14:25:03,TEMP=7.4,BA=5.64,STAT.h
28/11/2022,14:26:14,TEMP=7.4,BA=5.64,STAT.h
28/11/2022,14:26:15,TEMP=7.4,BA=5.64,STAT.h
28/11/2022,14:27:01,TEMP=7.4,BA=5.64,STAT.h
28/11/2022,14:30:01,TEMP=7.4,BA=5.64,STAT.h
28/11/2022,14:33:01,TEMP=7.4,BA=5.64,STAT.h
28/11/2022,14:36:01,TEMP=7.4,BA=5.64,STAT.h
28/11/2022,14:36:40,TEMP=7.4,BA=5.64,STAT.h
28/11/2022,14:36:46,TEMP=7.4,BA=5.64,STAT.h
28/11/2022,14:44:54,TEMP=7.4,BA=5.64,STAT.h
28/11/2022,14:44:55,TEMP=7.4,BA=5.64,STAT.h
28/11/2022,14:45:01,TEMP=7.4,BA=5.64,STAT.h
28/11/2022,14:48:01,TEMP=7.4,BA=5.64,STAT.h
28/11/2022,14:51:01,TEMP=7.4,BA=5.64,STAT.h
28/11/2022,14:51:34,TEMP=7.4,BA=5.64,STAT.h
28/11/2022,14:54:01,TEMP=7.4,BA=5.64,STAT.h
28/11/2022,14:57:01,TEMP=7.4,BA=5.64,STAT.h
28/11/2022,14:57:06,TEMP=7.4,BA=5.64,STAT.h
28/11/2022,14:57:07,TEMP=7.4,BA=5.64,STAT.h
28/11/2022,15:00:01,TEMP=7.4,BA=5.64,STAT.h
28/11/2022,15:01:45,TEMP=7.4,BA=5.64,STAT.h
28/11/2022,15:01:51,TEMP=7.4,BA=5.64,STAT.h